TimeMST,TemperatureF,Dew PointF,Humidity,Sea Level PressureIn,VisibilityMPH,Wind Direction,Wind SpeedMPH,Gust SpeedMPH,PrecipitationIn,Events,Conditions,WindDirDegrees,DateUTC
12:53 AM,18.0,12.0,78,30.14,10.0,Calm,Calm,-,N/A,,Clear,0,2013-02-12 07:53:00
1:53 AM,15.1,10.9,84,30.14,10.0,North,3.5,-,N/A,,Clear,360,2013-02-12 08:53:00
2:53 AM,14.0,9.0,80,30.14,10.0,NNE,8.1,-,N/A,,Clear,30,2013-02-12 09:53:00
3:53 AM,12.0,7.0,80,30.16,10.0,North,3.5,-,N/A,,Clear,360,2013-02-12 10:53:00
4:53 AM,10.9,6.1,81,30.19,10.0,North,4.6,-,N/A,,Clear,10,2013-02-12 11:53:00
5:53 AM,10.0,5.0,80,30.23,10.0,NNE,5.8,-,N/A,,Clear,30,2013-02-12 12:53:00
6:53 AM,9.0,3.9,80,30.26,10.0,North,4.6,-,N/A,,Clear,10,2013-02-12 13:53:00
7:53 AM,12.9,7.0,77,30.27,10.0,NE,3.5,-,N/A,,Clear,40,2013-02-12 14:53:00
8:53 AM,18.0,12.0,78,30.29,10.0,SE,3.5,-,N/A,,Clear,130,2013-02-12 15:53:00
9:53 AM,23.0,14.0,68,30.28,10.0,Calm,Calm,-,N/A,,Clear,0,2013-02-12 16:53:00
10:53 AM,26.1,12.9,58,30.28,10.0,Calm,Calm,-,N/A,,Clear,0,2013-02-12 17:53:00
11:53 AM,30.0,14.0,51,30.26,10.0,WNW,4.6,-,N/A,,Clear,290,2013-02-12 18:53:00
12:53 PM,34.0,15.1,46,30.22,10.0,West,12.7,-,N/A,,Clear,280,2013-02-12 19:53:00
1:53 PM,35.1,14.0,42,30.21,10.0,West,15.0,19.6,N/A,,Partly Cloudy,270,2013-02-12 20:53:00
2:53 PM,37.0,12.9,37,30.19,10.0,WNW,10.4,19.6,N/A,,Clear,290,2013-02-12 21:53:00
3:53 PM,36.0,12.9,39,30.21,10.0,WNW,17.3,23.0,N/A,,Clear,290,2013-02-12 22:53:00
4:53 PM,34.0,12.9,42,30.23,10.0,WNW,15.0,-,N/A,,Clear,290,2013-02-12 23:53:00
5:53 PM,30.9,14.0,50,30.26,10.0,WNW,13.8,-,N/A,,Clear,290,2013-02-13 00:53:00
6:53 PM,28.9,15.1,56,30.30,10.0,West,9.2,-,N/A,,Clear,260,2013-02-13 01:53:00
7:53 PM,28.0,15.1,58,30.29,10.0,West,5.8,-,N/A,,Clear,270,2013-02-13 02:53:00
8:53 PM,27.0,12.9,56,30.29,10.0,West,8.1,-,N/A,,Clear,270,2013-02-13 03:53:00
9:53 PM,25.0,12.9,60,30.29,10.0,Calm,Calm,-,N/A,,Clear,0,2013-02-13 04:53:00
10:53 PM,24.1,12.0,60,30.28,10.0,Calm,Calm,-,N/A,,Clear,0,2013-02-13 05:53:00
11:53 PM,23.0,12.0,63,30.26,10.0,WNW,4.6,-,N/A,,Clear,290,2013-02-13 06:53:00